Wetterstation Rossbuehl

Aktuelle Werte gibts auch unter Tel. 01577 4719248

Zugriff auf die letzten 10 Werte 30 Werte 100 Werte 400 Werte

Datum_____UhrzeitWind
Mittel
Wind
min
Wind
Boe
Wind
BoeTag
Wind
Richtung
Temp1
Feuchte Station Power
type
BatterieInter
vall
SMS
JJJJ-MM-TT hh:mmkm/hmin SpitzePeak Grad °C % ID Ex.oBat Volt min St.
2019-05-15 14:18 0 317 21.1 0 2 5.80 16
2019-05-15 14:13 0 317 21.1 0 2 5.79 15
2019-05-15 14:08 0 317 21.1 0 2 5.80 14
2019-05-15 14:03 0 318 21.1 0 2 5.80 13
2019-05-15 13:58 0 319 21.1 0 2 5.80 12
2019-05-15 13:53 0 316 21.1 0 2 5.77 11
2019-05-15 13:48 0 316 21.1 0 2 5.80 10
2019-05-15 13:43 0 317 21.1 0 2 5.80 9
2019-05-15 13:38 0 317 21.1 0 2 5.77 8
2019-05-15 13:33 0 317 20.9 0 2 5.80 7
2019-05-15 13:27 0 330 20.9 0 2 5.76 6
2019-05-15 13:22 0 328 20.9 0 2 5.79 5
2019-05-15 13:17 0 329 20.9 0 2 5.79 3
2019-05-15 13:08 0 319 20.8 0 2 5.80 15
2019-05-15 13:03 0 317 20.8 0 2 5.80 14
2019-05-15 12:58 0 317 20.8 0 2 5.80 13
2019-05-15 12:53 0 317 20.8 0 2 5.80 12
2019-05-15 12:48 0 319 20.8 0 2 5.80 11
2019-05-15 12:43 0 316 20.8 0 2 5.80 10
2019-05-15 12:38 0 316 20.8 0 2 5.80 9